When you browse on this site, cookies collect data to enhance your experience and personalize the content and advertising you see.
Visit our Privacy Policy to learn more. By continuing to use the site, you agree to this use of cookies and data.
  • In Romania
  • List of Countries
  • For 7 days
  • Water Temperature
  • Weather Map
  • Weather Widgets
  • user-avatar
    Login

    Hourly Weather Barra

    Today, 20 September, Friday

    Time Temperature Precipitation Wind Pressure Humidity
    00:00 +19°C° 0 mm 2 mps 752 mmHg 93%
    01:00 +19°C° 0 mm 2 mps 752 mmHg 93%
    02:00 +18°C° 0 mm 2 mps 751 mmHg 92%
    03:00 +18°C° 0 mm 2 mps 751 mmHg 92%
    04:00 +19°C° 0 mm 3 mps 751 mmHg 90%
    05:00 +19°C° 0 mm 3 mps 752 mmHg 88%
    06:00 +20°C° 0 mm 3 mps 752 mmHg 85%
    07:00 +20°C° 0 mm 3 mps 753 mmHg 83%
    08:00 +22°C° 0 mm 3 mps 753 mmHg 75%
    09:00 +24°C° 0 mm 3 mps 753 mmHg 67%
    10:00 +25°C° 0 mm 4 mps 753 mmHg 59%
    11:00 +26°C° 0 mm 4 mps 752 mmHg 57%
    12:00 +27°C° 0 mm 5 mps 752 mmHg 55%
    13:00 +27°C° 0 mm 5 mps 751 mmHg 54%
    14:00 +27°C° 0 mm 5 mps 751 mmHg 57%
    15:00 +26°C° 0 mm 5 mps 751 mmHg 60%
    16:00 +26°C° 0 mm 5 mps 751 mmHg 63%
    17:00 +23°C° 0.1 mm 5 mps 751 mmHg 72%
    18:00 +21°C° 0.1 mm 4 mps 751 mmHg 81%
    19:00 +20°C° 0.1 mm 4 mps 751 mmHg 90%
    20:00 +20°C° 0.1 mm 4 mps 752 mmHg 90%
    21:00 +19°C° 0.1 mm 3 mps 752 mmHg 91%
    22:00 +19°C° 0.1 mm 3 mps 753 mmHg 92%
    23:00 +19°C° 0.1 mm 3 mps 753 mmHg 92%

    Tomorrow, 21 September, Saturday

    Time Temperature Precipitation Wind Pressure Humidity
    00:00 +19°C° 0.1 mm 3 mps 752 mmHg 92%
    01:00 +19°C° 0.1 mm 3 mps 752 mmHg 92%
    02:00 +19°C° 0.1 mm 3 mps 752 mmHg 92%
    03:00 +19°C° 0.1 mm 3 mps 752 mmHg 91%
    04:00 +19°C° 0.1 mm 4 mps 752 mmHg 91%
    05:00 +19°C° 0 mm 3 mps 752 mmHg 89%
    06:00 +19°C° 0 mm 3 mps 753 mmHg 88%
    07:00 +19°C° 0 mm 3 mps 753 mmHg 87%
    08:00 +21°C° 0 mm 3 mps 753 mmHg 77%
    09:00 +24°C° 0 mm 3 mps 753 mmHg 68%
    10:00 +25°C° 0 mm 3 mps 753 mmHg 58%
    11:00 +26°C° 0 mm 4 mps 753 mmHg 56%
    12:00 +27°C° 0 mm 4 mps 752 mmHg 53%
    13:00 +27°C° 0 mm 4 mps 751 mmHg 51%
    14:00 +27°C° 0 mm 4 mps 751 mmHg 53%
    15:00 +26°C° 0 mm 4 mps 751 mmHg 56%
    16:00 +26°C° 0 mm 4 mps 751 mmHg 59%
    17:00 +24°C° 0 mm 3 mps 751 mmHg 67%
    18:00 +21°C° 0 mm 3 mps 752 mmHg 76%
    19:00 +20°C° 0 mm 2 mps 752 mmHg 85%
    20:00 +20°C° 0.1 mm 2 mps 753 mmHg 86%
    21:00 +20°C° 0.1 mm 2 mps 753 mmHg 88%
    22:00 +20°C° 0.1 mm 3 mps 754 mmHg 89%
    23:00 +19°C° 0.1 mm 3 mps 753 mmHg 90%

    Day after tomorrow, 22 September, Sunday

    Time Temperature Precipitation Wind Pressure Humidity
    00:00 +19°C° 0.1 mm 2 mps 753 mmHg 90%
    01:00 +19°C° 0.1 mm 2 mps 753 mmHg 91%
    02:00 +19°C° 0 mm 2 mps 753 mmHg 91%
    03:00 +19°C° 0 mm 3 mps 753 mmHg 92%
    04:00 +18°C° 0 mm 3 mps 753 mmHg 92%
    05:00 +19°C° 0 mm 3 mps 753 mmHg 91%
    06:00 +19°C° 0 mm 3 mps 753 mmHg 89%
    07:00 +20°C° 0 mm 3 mps 754 mmHg 88%
    08:00 +22°C° 0.1 mm 4 mps 754 mmHg 79%
    09:00 +23°C° 0.1 mm 4 mps 754 mmHg 69%
    10:00 +26°C° 0.1 mm 4 mps 754 mmHg 60%
    11:00 +27°C° 0 mm 5 mps 754 mmHg 58%
    12:00 +27°C° 0 mm 5 mps 753 mmHg 55%
    13:00 +28°C° 0 mm 5 mps 752 mmHg 53%
    14:00 +27°C° 0 mm 5 mps 752 mmHg 55%
    15:00 +27°C° 0 mm 5 mps 752 mmHg 58%
    16:00 +26°C° 0 mm 5 mps 752 mmHg 60%
    17:00 +25°C° 0.1 mm 4 mps 752 mmHg 71%
    18:00 +22°C° 0.1 mm 4 mps 753 mmHg 81%
    19:00 +20°C° 0.1 mm 3 mps 753 mmHg 91%
    20:00 +20°C° 0.1 mm 3 mps 754 mmHg 92%
    21:00 +20°C° 0.1 mm 3 mps 754 mmHg 94%
    22:00 +20°C° 0.1 mm 3 mps 754 mmHg 95%
    23:00 +20°C° 0.2 mm 3 mps 754 mmHg 95%

    23 September, Monday

    Time Temperature Precipitation Wind Pressure Humidity
    00:00 +20°C° 0.2 mm 3 mps 754 mmHg 95%
    01:00 +20°C° 0.2 mm 3 mps 754 mmHg 95%
    02:00 +20°C° 0.3 mm 4 mps 753 mmHg 95%
    03:00 +20°C° 0.3 mm 4 mps 753 mmHg 95%
    04:00 +21°C° 0.3 mm 4 mps 753 mmHg 95%
    05:00 +21°C° 0.4 mm 4 mps 753 mmHg 94%
    06:00 +21°C° 0.4 mm 4 mps 753 mmHg 94%
    07:00 +21°C° 0.4 mm 4 mps 754 mmHg 93%
    08:00 +22°C° 0.3 mm 4 mps 754 mmHg 88%
    09:00 +23°C° 0.3 mm 4 mps 754 mmHg 84%
    10:00 +25°C° 0.3 mm 4 mps 754 mmHg 79%
    11:00 +25°C° 0.3 mm 5 mps 753 mmHg 76%
    12:00 +26°C° 0.3 mm 5 mps 753 mmHg 72%
    13:00 +26°C° 0.3 mm 5 mps 752 mmHg 69%
    14:00 +26°C° 0 mm 5 mps 752 mmHg 67%
    15:00 +26°C° 0 mm 4 mps 752 mmHg 64%
    16:00 +26°C° 0 mm 4 mps 752 mmHg 62%
    17:00 +23°C° 0 mm 4 mps 752 mmHg 70%
    18:00 +22°C° 0 mm 3 mps 753 mmHg 79%
    19:00 +20°C° 0 mm 2 mps 753 mmHg 87%
    20:00 +20°C° 0 mm 2 mps 754 mmHg 89%
    21:00 +19°C° 0 mm 2 mps 754 mmHg 91%
    22:00 +19°C° 0 mm 2 mps 754 mmHg 93%
    23:00 +19°C° 0 mm 3 mps 754 mmHg 93%

    24 September, Tuesday

    Time Temperature Precipitation Wind Pressure Humidity
    00:00 +19°C° 0 mm 3 mps 753 mmHg 93%
    01:00 +19°C° 0 mm 3 mps 753 mmHg 92%
    02:00 +19°C° 0.1 mm 3 mps 753 mmHg 92%
    03:00 +19°C° 0.1 mm 3 mps 752 mmHg 92%
    04:00 +19°C° 0.1 mm 3 mps 752 mmHg 92%
    05:00 +19°C° 0.1 mm 3 mps 752 mmHg 91%
    06:00 +20°C° 0.1 mm 3 mps 753 mmHg 90%
    07:00 +20°C° 0.1 mm 3 mps 753 mmHg 89%
    08:00 +22°C° 0.1 mm 3 mps 753 mmHg 82%
    09:00 +23°C° 0.1 mm 4 mps 753 mmHg 76%
    10:00 +26°C° 0.1 mm 4 mps 753 mmHg 70%
    11:00 +26°C° 0.1 mm 4 mps 753 mmHg 67%
    12:00 +27°C° 0.1 mm 5 mps 752 mmHg 65%
    13:00 +27°C° 0.1 mm 5 mps 752 mmHg 62%
    14:00 +27°C° 0.1 mm 5 mps 752 mmHg 64%
    15:00 +27°C° 0.1 mm 5 mps 751 mmHg 66%
    16:00 +26°C° 0.1 mm 5 mps 751 mmHg 69%
    17:00 +25°C° 0.4 mm 4 mps 752 mmHg 77%
    18:00 +22°C° 0.4 mm 4 mps 752 mmHg 85%
    19:00 +21°C° 0.4 mm 3 mps 753 mmHg 93%
    20:00 +21°C° 0.2 mm 3 mps 753 mmHg 94%
    21:00 +21°C° 0.2 mm 3 mps 754 mmHg 94%
    22:00 +21°C° 0.2 mm 3 mps 754 mmHg 95%
    23:00 +20°C° 0.2 mm 3 mps 754 mmHg 95%

    25 September, Wednesday

    Time Temperature Precipitation Wind Pressure Humidity
    00:00 +20°C° 0.2 mm 3 mps 753 mmHg 94%
    01:00 +20°C° 0.2 mm 3 mps 753 mmHg 94%
    02:00 +20°C° 0.1 mm 3 mps 753 mmHg 94%
    03:00 +20°C° 0.1 mm 3 mps 752 mmHg 94%
    04:00 +19°C° 0.1 mm 3 mps 752 mmHg 94%
    05:00 +20°C° 0.2 mm 3 mps 753 mmHg 93%
    06:00 +20°C° 0.2 mm 4 mps 753 mmHg 92%
    07:00 +20°C° 0.2 mm 4 mps 753 mmHg 92%
    08:00 +21°C° 0.3 mm 4 mps 753 mmHg 87%
    09:00 +23°C° 0.3 mm 4 mps 753 mmHg 82%
    10:00 +25°C° 0.3 mm 4 mps 754 mmHg 77%
    11:00 +26°C° 0.1 mm 5 mps 753 mmHg 71%
    12:00 +27°C° 0.1 mm 5 mps 752 mmHg 66%
    13:00 +27°C° 0.1 mm 5 mps 752 mmHg 60%
    14:00 +27°C° 0 mm 4 mps 751 mmHg 61%
    15:00 +27°C° 0 mm 4 mps 751 mmHg 61%
    16:00 +26°C° 0 mm 4 mps 751 mmHg 62%
    17:00 +25°C° 0 mm 4 mps 751 mmHg 70%
    18:00 +22°C° 0 mm 3 mps 752 mmHg 78%
    19:00 +20°C° 0 mm 3 mps 752 mmHg 86%
    20:00 +20°C° 0.1 mm 3 mps 753 mmHg 88%
    21:00 +20°C° 0.1 mm 2 mps 753 mmHg 90%
    22:00 +19°C° 0.1 mm 2 mps 754 mmHg 92%
    23:00 +19°C° 0.2 mm 2 mps 753 mmHg 92%
    Show more